COSMOS 2583

导读

**COSMOS 2583卫星摘要** COSMOS 2583是独联体(CIS)于2025年2月2日(GMT)从普列谢茨克航天发射场,由联盟-2.1V火箭发射的俄罗斯军用卫星,与Kosmos 2581、2582一同进入近地近极轨道,轨道高度约585公里。作为俄军秘密发射的航天器,其具体任务未公开,入轨后曾展现特殊机动行为,释放神秘 objects引发全球太空追踪界关注,目前在轨运行状态未知。

Basic Information
目录编号:
62904
目录名称:
COSMOS 2583
国际标识:
2025-026C
轨道中心:
EARTH
卫星名称:
COSMOS 2583
卫星全名:
COSMOS 2583
卫星状态:
在轨 (已飞行586 天)
发射日期:
2025-02-05 UTC
国别 :
俄罗斯(独联体) (CIS)
星等 :
--
This satellite is enrolled in the Space Conjunction Data Service (SCDS) and the current flight risk assessment level is: No High Risk
Orbit Information
数据来源 国际轨道数据
星历时间: 2026-09-14T02:23:10+0800
8小时前
查看轨道信息
半长轴: 6959.959km
偏心率: 0.0011304
轨道倾角: 81.999°
近地点辐角 119.678°
升交点赤经 344.102°
平近点角 240.557°
近地点: 573.954km
远地点: 589.69km
周期: 96.310分钟
每日圈数: 14.951776
Detailed Information
使用方式:
暂无
2D Orbit Map
3D Orbit Map
Orbit Altitude Analysis Chart
Orbit Inclination Analysis Chart
Orbit Comprehensive Analysis Chart
View Comprehensive Chart
Conjunction Data List
Event ID Objects TCA Miss Dist (km) Collision Risk Probability Collision Risk Index (CRI) Action
CDM_260915-183805-463806-290422
2026-09-15T
18:38:32+0000
0.700 km
远距离
2.516911E-5 中风险 0.63
CDM_260914-065006-290406-990426
2026-09-14T
06:50:24+0000
1.233 km
极远距离
1.324174E-5 中风险 0.57
CDM_260915-110106-216706-290421
2026-09-15T
11:01:21+0000
2.163 km
极远距离
1.6078E-6 低风险 0.39
Miss Distance Evolution Trend with All Objects Subscribe to Flight Safety Assessment
Collision Probability Evolution Trend with All Objects Subscribe to Flight Safety Assessment